Weather History for Charlottetown, PE

Change the Weather History Date:

Friday, June 28, 2013

  Actual Average Record
Temperature  
Mean Temperature 56 °F -  
Max Temperature 60 °F 74 °F 80 °F (2006)
Min Temperature 51 °F 56 °F 45 °F (2014)
Degree Days  
Heating Degree Days 10    
Growing Degree Days 6 (Base 50)    
Moisture  
Dew Point 54 °F    
Average Humidity 94    
Maximum Humidity 100    
Minimum Humidity 82    
Precipitation  
Precipitation 0.28 in 0.11 in - ()
Sea Level Pressure  
Sea Level Pressure 29.95 in    
Wind  
Wind Speed 8 mph ()    
Max Wind Speed 15 mph    
Max Gust Speed 21 mph    
Visibility 11.6 miles    
Events Rain    
Averages and records for this station are not official NWS values.
T = Trace of Precipitation, MM = Missing Value Source: Averaged Metar Reports

Daily Weather History Graph

Daily Weather History Graph

Search for Another Location

Airport:

Trip Planner

Search our weather history database for the weather conditions in past years. The results will help you decide how hot, cold, wet, or windy it might be!

Date:

Astronomy

Jun. 28, 2013 Rise Set
Actual Time 5:22 AM ADT 9:08 PM ADT
Civil Twilight 4:44 AM ADT 9:47 PM ADT
Nautical Twilight 3:51 AM ADT 10:39 PM ADT
Astronomical Twilight 2:37 AM ADT 11:53 PM ADT
Moon No Moon Rise 11:48 AM ADT
Length of Visible Light 17h 03m
Length of Day
15h 45m
Waning Gibbous, 67% of the Moon is Illuminated
Jun 28
Waning Gibbous
Jun 30
Last Quarter
Jul 8
New
Jul 16
First Quarter
Jul 22
Full

Hourly Weather History & Observations

Time (ADT) Temp. Dew Point Humidity Pressure Visibility Wind Dir Wind Speed Gust Speed Precip Events Conditions
12:00 AM 53.6 °F 51.8 °F 94% 30.01 in 15.0 mi NNE 6.9 mph - N/A   Overcast
1:00 AM 53.6 °F 51.8 °F 94% 30.01 in 15.0 mi NE 9.2 mph - N/A   Overcast
2:00 AM 53.6 °F 51.8 °F 94% 30.00 in 15.0 mi ENE 6.9 mph - N/A   Overcast
3:00 AM 53 °F 51 °F 89% 30.01 in 15 mi NE 6.9 mph - -   Partly Cloudy
3:00 AM 53.6 °F 50.0 °F 88% 30.00 in 15.0 mi NE 8.1 mph - N/A   Overcast
4:00 AM 51.8 °F 50.0 °F 94% 30.01 in 15.0 mi ENE 6.9 mph - N/A   Overcast
5:00 AM 51.8 °F 51.8 °F 100% 30.01 in 15.0 mi ENE 5.8 mph - N/A   Overcast
5:49 AM 51.8 °F 51.8 °F 100% 30.01 in 0.0 mi NE 5.8 mph - N/A   Light Drizzle
6:00 AM 51.8 °F 51.8 °F 100% 30.01 in 10.0 mi ENE 4.6 mph - N/A   Light Drizzle
7:00 AM 51.8 °F 51.8 °F 100% 30.01 in 10.0 mi NE 8.1 mph - N/A   Light Drizzle
7:41 AM 53.6 °F 51.8 °F 94% 30.01 in 10.0 mi ENE 5.8 mph - N/A   Overcast
8:00 AM 53.6 °F 51.8 °F 94% 30.01 in 15.0 mi East 9.2 mph - N/A   Overcast
9:00 AM 54 °F 53 °F 93% 30.01 in 15 mi East 8.1 mph - -   Partly Cloudy
9:00 AM 55.4 °F 51.8 °F 88% 30.00 in 15.0 mi East 9.2 mph - N/A   Overcast
10:00 AM 55.4 °F 53.6 °F 94% 30.00 in 15.0 mi East 8.1 mph - N/A   Overcast
11:00 AM 57.2 °F 55.4 °F 94% 30.00 in 15.0 mi ENE 8.1 mph - N/A   Overcast
12:00 PM 57.2 °F 55.4 °F 94% 29.99 in 15.0 mi East 9.2 mph - N/A   Overcast
12:11 PM 59.0 °F 57.2 °F 94% 29.99 in 15.0 mi East 8.1 mph - N/A Rain Light Rain
12:53 PM 59.0 °F 57.2 °F 94% 29.97 in 10.0 mi East 10.4 mph - N/A Rain Light Rain
1:00 PM 59.0 °F 57.2 °F 94% 29.97 in 10.0 mi East 10.4 mph - N/A Rain Light Rain
2:00 PM 60.8 °F 55.4 °F 82% 29.96 in 15.0 mi East 11.5 mph - N/A   Overcast
2:46 PM 59.0 °F 55.4 °F 88% 29.95 in 15.0 mi East 13.8 mph - N/A Rain Light Rain
3:00 PM 59 °F 56 °F 85% 29.95 in 15 mi East 13.8 mph - - Rain Light Rain
3:00 PM 59.0 °F 55.4 °F 88% 29.95 in 15.0 mi East 12.7 mph 19.6 mph N/A Rain Light Rain
3:36 PM 59.0 °F 55.4 °F 88% 29.94 in 15.0 mi East 11.5 mph 20.7 mph N/A   Overcast
4:00 PM 59.0 °F 55.4 °F 88% 29.94 in 15.0 mi East 13.8 mph - N/A Rain Light Rain Showers
4:29 PM 57.2 °F 55.4 °F 94% 29.93 in 2.0 mi East 12.7 mph 19.6 mph N/A Rain Rain Showers
5:00 PM 57.2 °F 55.4 °F 94% 29.93 in 2.0 mi East 12.7 mph - N/A Rain Rain Showers
5:20 PM 57.2 °F 55.4 °F 94% 29.93 in 3.0 mi ESE 12.7 mph 18.4 mph N/A Rain Light Rain Showers
6:00 PM 57.2 °F 55.4 °F 94% 29.92 in 2.0 mi East 10.4 mph - N/A Rain Rain Showers
6:06 PM 57.2 °F 55.4 °F 94% 29.91 in 2.0 mi East 11.5 mph 19.6 mph N/A Rain Heavy Rain Showers
6:08 PM 55.4 °F 55.4 °F 100% 29.91 in 2.0 mi ESE 11.5 mph 19.6 mph N/A Rain Rain Showers
6:10 PM 55.4 °F 55.4 °F 100% 29.91 in 10.0 mi ESE 15.0 mph - N/A Rain Light Rain Showers
7:00 PM 55.4 °F 53.6 °F 94% 29.91 in 15.0 mi ESE 13.8 mph - N/A   Overcast
8:00 PM 55.4 °F 53.6 °F 94% 29.89 in 15.0 mi ESE 11.5 mph 17.3 mph N/A   Overcast
8:34 PM 55.4 °F 53.6 °F 94% 29.88 in 12.0 mi ESE 15.0 mph - N/A Rain Light Rain Showers
9:00 PM 55 °F 54 °F 95% 29.88 in 12 mi ESE 12.7 mph - - Rain Light Rain Showers
9:00 PM 55.4 °F 53.6 °F 94% 29.88 in 12.0 mi ESE 12.7 mph 19.6 mph N/A Rain Light Rain Showers
10:00 PM 55.4 °F 53.6 °F 94% 29.86 in 12.0 mi ESE 11.5 mph 18.4 mph N/A Rain Light Rain Showers
10:53 PM 55.4 °F 53.6 °F 94% 29.85 in 12.0 mi ESE 10.4 mph - N/A   Overcast
11:00 PM 55.4 °F 55.4 °F 100% 29.84 in 12.0 mi ESE 13.8 mph - N/A Rain Light Rain Showers